Showing default

KANOPUS-V-IK, 42825

Orbit data source: Space-Track

KANOPUS-V-IK, 42825 is a payload satellite owned by VNIIEM (CIS) in SSO that was launched on Fri, 14 Jul 2017 UTC via a SOYUZ-2-1A launch vehicle from the Tyuratam Missile And Space Complex (TTMTR). Payloads include a variety of satellites, spacecraft, and rockets equipped with specific instruments for various scientific and technological missions. These include communications satellites like Starlink; space stations such as the ISS; scientific satellites like the Hubble; Earth observation satellites from companies like Planet Labs, Umbra, and HawkEye 360; GPS; miniature CubeSats for education and research; and military/defense satellites.

Loading next visibility...
KANOPUS-V-IK details
Identifier
42825, 2017-042A
Orbit
SSO
Last TLE update10 hours ago
Origin
Flag of CISVNIIEM (CIS)
ManufacturerVNIIEM
MissionOperational Civil Imaging
Bus & MotorKANOPUS, Unknown motor
Mass550 kg wet, 550 kg dry
Launch date (UTC)
2017-07-14 (8 years ago)
Launch vehicle
SOYUZ-2-1A
Launch site
Tyuratam Missile And Space Complex (TTMTR)
Object type
Payload
Rocket body
Debris
Shape & HBRBox + 2 Pan, 6 m
Radar Cross Section1.665 m², Large (>1 m²)

Expand to show TLE details & history

TLE from 10 hours ago
0 KANOPUS-V-IK
1 42825U 17042A   25024.11626034  .00004657  00000-0  20630-3 0  9997
2 42825  97.3877 294.1144 0001772  88.5717 271.5722 15.22117731417897
Epoch: 2025-01-24T02:47Z
Definitive object data (Epoch: 2025-01-24T02:47:24.893Z)
Latitude-0.00005°
Longitude128.57664°
Altitude502.514 km
Speed7.613 km/s
True Right ascension19h 36m 27s
True Declination0° 00' 00"
Sunlit
Object was in daylight at TLE epoch
Visualization TLE readout
Latitude53.49708°
Longitude118.93933°
Altitude507.237 km
Speed7.616 km/s
Apparent Right ascension22h 46m 30s
Apparent Declination14° 10' 06"
Sunlit
Object is in daylight
Visualization observer readout
Local Sidereal Time13:45:26
Azimuth47.301° ENE
Elevation-21.791°
Doppler factor1
Orbital elements
Apogee altitude497.634 km
Perigee altitude495.198 km
Semi-major axis6,874.553 km
Eccentricity0.0001772
Inclination97.3877°
RAAN294.1144°
Arg. of periapsis88.5717°
True anomaly271.5519°
Mean anomaly271.5722°
Eccentric anomaly271.56205°
Mean motion3.80782 °/min
BSTAR0.0002063
Orbital period94.54 mins
Loading maneuver chart data...

KANOPUS-V-IK Visibility forecast

Observer location: undefined°, undefined

Span
Click to sort rows by Start time (UTC) header in descending order
Start Az.
Max El. time (UTC)
Max El. Az.
Max El.
End time (UTC)
End Az.
4 mins2025-01-24 17:08:35.057Z112.143° ESE2025-01-24 17:10:35.057Z71.123° E20.504°2025-01-24 17:12:35.057Z29.092° NE
4 mins2025-01-24 18:42:35.057Z228.662° WSW2025-01-24 18:44:35.057Z272.515° WNW19.705°2025-01-24 18:46:35.057Z310.174° NW
5 mins2025-01-25 06:11:35.057Z44.73° NE2025-01-25 06:13:35.057Z93.132° ESE27.223°2025-01-25 06:16:35.057Z158.067° S
|